Location: Newark
(48.0000°N, 67.0000°E)
Time: 05:11:18
(UTC+00:00)

DUCHIFAT 1 - Pass Details

Date: 07 April 2020
Orbit: 586 x 604 km, 97.9° (Epoch: 27 May)

Event Time Altitude Azimuth Distance (km) Brightness Sun altitude
Rises 19:53:46 0° 26° (NNE) 2,836 ? -34.6°
Reaches altitude 10° 19:56:21 10° 41° (NE) 1,926 ? -34.5°
Enters shadow 19:56:58 13° 48° (NE) 1,739 ? -34.5°
